Volver al catálogo

LEMUR 2 JEROEN

LostCienciaLEO
NORAD 40934·PAYLOAD·🇺🇸 United States

Lanzado Sep 28, 2015 desde Satish Dhawan Space Centre

Loading…

Próximos Pases (próximas 24 horas)

TLE

ObsoletoSource: Space-Track

Época: Jan 4, 2024, 11:16 UTC

1 40934U 15052E   24004.46951125  .00005017  00000-0  51754-3 0  9994
2 40934   6.0073  50.3046 0009895 338.4222  21.5489 14.83222395447206

Sigue LEMUR 2 JEROEN en tiempo real con AllMySat

Download on the App Store